STARLINK-1193 (45100 NORAD) Tracking and Keplerian Element Data

This shows tracking and keplerian element data for the satellite.

Feedback or suggestion? Click here.




ElementValue
Catalog45100
NameSTARLINK-1193
Epoch Orbit162
Epoch Day93.91667824
Epoch Year2020
RAAN277.109
Inclination53.0009
Eccentricity0.0008389
Argument of Perigee325.1402
Mean Anonmoly300.1427
Mean Motion15.62706741
Decay Rate0.00084979
L11 45100U 20006BJ 20093.91667824 .00084979 00000-0 92450-3 0 9995
L22 45100 53.0009 277.1090 0008389 325.1402 300.1427 15.62706741 1625

Live tracking and technical data element details for STARLINK-1193 (NORAD 45100). STARLINK-1193 can be tracked NOW for your location showing map with azimuth and elevation plus other details from your city location.

Track the satellite on the map from your city or location and see movement details for azimuth, elevation, latitude, longitude, range, height, and movement on the map or in text.







IsCatalogInMostPopularTable: catalog: 45100, numindb: 14
Update: records affected: 1



GetName: 45100 STARLINK-1193

Hit Count: updated at: Sun, 05 Apr 2020 19:37:02 GMT